This demonstration page uses our WeatherBlox Daily Observations layout. Learn more.

Hourly Observations for May 26, 2017

Temp ( °F °C ) Dew Point ( °F °C ) Humidity (%) Winds ( mph kmh ) Pressure ( in mb ) Visibility ( mi km ) Precip ( " mm )
12:15 am 00:15 Clear 64 17.5 56 13.5 78 78 N 6 9 29.62 1003 10 16.09344 0 0
12:35 am 00:35 Clear 62 16.8 56 13.3 80 80 NW 5 7 29.65 1004 10 16.09344 0 0
12:55 am 00:55 Partly Cloudy 61 16.2 56 13.5 84 84 W 6 9 29.65 1004 10 16.09344 0 0
1:15 am 01:15 Partly Cloudy 61 16.1 56 13.5 85 85 WNW 10 17 29.65 1004 10 16.09344 0 0
1:35 am 01:35 Clear 61 16.2 56 13.3 83 83 N 3 6 29.65 1004 10 16.09344 0 0
1:55 am 01:55 Partly Cloudy 61 16 56 13.3 84 84 ESE 5 7 29.65 1004 10 16.09344 0 0
2:15 am 02:15 Clear 61 16.2 55 13 81 81 N 5 7 29.65 1004 10 16.09344 0 0
2:35 am 02:35 Clear 61 16 55 12.8 81 81 NNE 7 11 29.65 1004 10 16.09344 0 0
2:55 am 02:55 Clear 60 15.7 55 13 84 84 N 6 9 29.65 1004 10 16.09344 0 0
3:15 am 03:15 Clear 60 15.3 55 12.8 85 85 N 7 11 29.65 1004 10 16.09344 0 0
3:35 am 03:35 Clear 59 15.2 55 12.6 85 85 NNW 7 11 29.68 1005 10 16.09344 0 0
3:55 am 03:55 Clear 60 15.3 54 12.2 82 82 N 7 11 29.68 1005 10 16.09344 0 0
4:15 am 04:15 Clear 59 15.1 53 11.9 81 81 NNW 9 15 29.71 1006 10 16.09344 0 0
4:35 am 04:35 Clear 58 14.7 53 11.5 81 81 NNW 10 17 29.71 1006 10 16.09344 0 0
4:55 am 04:55 Clear 60 15.3 52 10.9 75 75 N 18 30 29.71 1006 10 16.09344 0 0
5:15 am 05:15 Clear 58 14.6 48 8.7 68 68 N 18 30 29.74 1007 10 16.09344 0 0
5:35 am 05:35 Clear 57 14 46 7.5 65 65 N 18 30 29.77 1008 10 16.09344 0 0
5:55 am 05:55 Clear 56 13.3 46 7.5 68 68 N 15 24 29.77 1008 10 16.09344 0 0
6:15 am 06:15 Sunny 55 12.8 45 7.2 69 69 N 16 26 29.8 1009 10 16.09344 0 0
6:35 am 06:35 Sunny 55 12.6 44 6.8 68 68 N 14 22 29.8 1009 10 16.09344 0 0
6:55 am 06:55 Sunny 55 12.5 44 6.7 68 68 N 16 26 29.8 1009 10 16.09344 0 0
7:15 am 07:15 Sunny 55 13 44 6.8 66 66 N 15 24 29.83 1010 10 16.09344 0 0
7:35 am 07:35 Sunny 56 13.5 45 7 65 65 N 17 28 29.83 1010 10 16.09344 0 0
7:55 am 07:55 Sunny 58 14.2 45 7.3 63 63 N 18 30 29.83 1010 10 16.09344 0 0
8:15 am 08:15 Partly Cloudy 58 14.6 45 7 61 61 N 17 28 29.83 1010 10 16.09344 0 0
8:35 am 08:35 Partly Cloudy 60 15.3 45 7.1 58 58 N 17 28 29.8 1009 10 16.09344 0 0
8:55 am 08:55 Partly Cloudy 61 15.9 45 7.1 56 56 N 22 35 29.83 1010 10 16.09344 0 0
9:15 am 09:15 Mostly Cloudy 60 15.4 44 6.9 57 57 N 16 26 29.83 1010 10 16.09344 0 0
9:35 am 09:35 Partly Cloudy 61 15.9 46 7.5 58 58 NNE 15 24 29.83 1010 10 16.09344 0 0
9:55 am 09:55 Partly Cloudy 61 16 46 7.5 57 57 N 13 20 29.83 1010 10 16.09344 0 0
10:15 am 10:15 Mostly Cloudy 63 17.2 46 7.5 53 53 NNE 16 26 29.83 1010 10 16.09344 0 0
10:35 am 10:35 Cloudy 63 17.4 45 7.4 52 52 N 12 19 29.85 1011 10 16.09344 0 0
10:55 am 10:55 Cloudy 64 17.7 46 8 53 53 N 12 19 29.85 1011 10 16.09344 0 0
11:15 am 11:15 Cloudy 64 17.5 46 8 54 54 NNE 9 15 29.85 1011 10 16.09344 0 0
11:35 am 11:35 Partly Cloudy 65 18.2 47 8.3 53 53 N 10 17 29.85 1011 10 16.09344 0 0
11:55 am 11:55 Partly Cloudy 66 19.1 47 8.5 50 50 NNE 12 19 29.83 1010 10 16.09344 0 0
12:15 pm 12:15 Partly Cloudy 67 19.6 48 8.8 50 50 N 7 11 29.83 1010 10 16.09344 0 0
12:35 pm 12:35 Mostly Cloudy 68 19.9 48 8.7 49 49 N 8 13 29.83 1010 10 16.09344 0 0
12:55 pm 12:55 Partly Cloudy 69 20.3 48 9.1 49 49 N 7 11 29.83 1010 10 16.09344 0 0
1:15 pm 13:15 Sunny 69 20.6 48 9 47 47 N 9 15 29.83 1010 10 16.09344 0 0
1:55 pm 13:55 Sunny 70 21.2 49 9.4 47 47 Calm 29.83 1010 10 16.09344 0 0
2:15 pm 14:15 Sunny 71 21.5 48 9 45 45 ENE 7 11 29.83 1010 10 16.09344 0 0
2:35 pm 14:35 Sunny 71 21.9 49 9.5 45 45 ESE 7 11 29.8 1009 10 16.09344 0 0
2:55 pm 14:55 Sunny 72 22.2 48 9 43 43 NE 6 9 29.77 1008 10 16.09344 0 0
3:15 pm 15:15 Sunny 72 22.4 49 9.4 44 44 ESE 6 9 29.77 1008 10 16.09344 0 0
3:35 pm 15:35 Sunny 73 22.6 49 9.4 43 43 ESE 7 11 29.77 1008 10 16.09344 0 0
3:55 pm 15:55 Sunny 73 22.9 49 9.7 43 43 ENE 3 6 29.77 1008 10 16.09344 0 0
4:15 pm 16:15 Sunny 73 23 45 7.3 37 37 Calm 29.77 1008 10 16.09344 0 0
4:35 pm 16:35 Sunny 74 23.5 47 8.1 37 37 Calm 29.77 1008 10 16.09344 0 0
4:55 pm 16:55 Sunny 74 23.5 51 10.3 43 43 SE 5 7 29.74 1007 10 16.09344 0 0
5:15 pm 17:15 Sunny 74 23.3 49 9.3 41 41 NE 3 6 29.74 1007 10 16.09344 0 0
5:35 pm 17:35 Sunny 74 23.6 49 9.4 41 41 Calm 29.74 1007 10 16.09344 0 0
5:55 pm 17:55 Sunny 74 23.3 51 10.6 45 45 NE 6 9 29.74 1007 10 16.09344 0 0
6:15 pm 18:15 Sunny 74 23.6 51 10.3 43 43 Calm 29.74 1007 10 16.09344 0 0
6:35 pm 18:35 Sunny 73 22.9 52 11.3 48 48 ENE 3 6 29.74 1007 10 16.09344 0 0
6:55 pm 18:55 Sunny 74 23.1 51 10.3 44 44 E 5 7 29.74 1007 10 16.09344 0 0
7:15 pm 19:15 Sunny 71 21.4 52 11.3 53 53 E 5 7 29.77 1008 10 16.09344 0 0
7:35 pm 19:35 Sunny 69 20.7 52 11 54 54 E 9 15 29.77 1008 10 16.09344 0 0
7:55 pm 19:55 Sunny 69 20.5 51 10.8 54 54 E 6 9 29.77 1008 10 16.09344 0 0
8:15 pm 20:15 Sunny 67 19.7 51 10.8 57 57 E 7 11 29.77 1008 10 16.09344 0 0
8:35 pm 20:35 Sunny 66 18.8 52 11.2 62 62 ENE 7 11 29.77 1008 10 16.09344 0 0
8:55 pm 20:55 Sunny 65 18.5 52 11 62 62 ENE 6 9 29.83 1010 10 16.09344 0 0
9:15 pm 21:15 Clear 65 18.4 51 10.5 60 60 NNE 5 7 29.83 1010 10 16.09344 0 0
9:35 pm 21:35 Clear 65 18.1 51 10.4 61 61 ENE 5 7 29.83 1010 10 16.09344 0 0
9:55 pm 21:55 Clear 63 17 51 10.4 65 65 E 5 7 29.85 1011 10 16.09344 0 0
10:15 pm 22:15 Clear 62 16.7 51 10.4 67 67 E 7 11 29.85 1011 10 16.09344 0 0
10:35 pm 22:35 Clear 64 17.6 49 9.5 59 59 E 9 15 29.83 1010 10 16.09344 0 0
10:55 pm 22:55 Clear 64 18 49 9.5 58 58 ESE 5 7 29.85 1011 10 16.09344 0 0
11:15 pm 23:15 Clear 64 17.5 50 10.1 62 62 SE 6 9 29.85 1011 10 16.09344 0 0
11:35 pm 23:35 Clear 64 17.5 51 10.5 64 64 SE 7 11 29.85 1011 10 16.09344 0 0
11:55 pm 23:55 Partly Cloudy 64 17.8 51 10.3 62 62 SE 5 7 29.85 1011 10 16.09344 0 0

Powered by AerisWeather